TimeICT,TemperatureF,Dew PointF,Humidity,Sea Level PressureIn,VisibilityMPH,Wind Direction,Wind SpeedMPH,Gust SpeedMPH,PrecipitationIn,Events,Conditions,WindDirDegrees,DateUTC
12:00 AM,78.8,69.8,74,29.74,3.1,Calm,Calm,-,N/A,,Mist,0,2013-02-18 17:00:00
1:00 AM,78,67,60,29.76,3,Calm,Calm,,,,Mist,,2013-02-18 18:00:00
1:00 AM,78.8,66.2,65,29.74,3.1,Calm,Calm,-,N/A,,Mist,0,2013-02-18 18:00:00
4:00 AM,75.2,66.2,73,29.74,3.1,Calm,Calm,-,N/A,,Mist,0,2013-02-18 21:00:00
5:00 AM,73.4,66.2,78,29.74,3.1,NE,2.3,-,N/A,,Mist,50,2013-02-18 22:00:00
6:00 AM,73.4,64.4,73,29.80,2.5,NE,1.2,-,N/A,,Mist,40,2013-02-18 23:00:00
7:00 AM,74,62,58,29.84,2,Calm,Calm,,,,Mist,,2013-02-19 00:00:00
9:00 AM,80.6,64.4,58,29.86,3.1,SE,4.6,-,N/A,,Haze,130,2013-02-19 02:00:00
10:00 AM,86.0,66.2,51,29.83,3.7,SSE,4.6,-,N/A,,Unknown,160,2013-02-19 03:00:00
11:00 AM,89.6,66.2,46,29.83,3.7,South,5.8,-,N/A,,Unknown,180,2013-02-19 04:00:00
12:00 PM,91.4,64.4,41,29.80,3.7,South,5.8,-,N/A,,Unknown,190,2013-02-19 05:00:00
1:00 PM,94,65,29,29.78,4,ESE,5.8,,,,Haze,120,2013-02-19 06:00:00
1:00 PM,95.0,68.0,41,29.77,3.7,ESE,3.5,-,N/A,,Unknown,120,2013-02-19 06:00:00
2:00 PM,96.8,66.2,37,29.74,3.7,West,3.5,-,N/A,,Unknown,270,2013-02-19 07:00:00
3:00 PM,96.8,62.6,32,29.68,3.7,South,2.3,-,N/A,,Unknown,180,2013-02-19 08:00:00
4:00 PM,98.6,64.4,32,29.71,3.7,South,2.3,-,N/A,,Unknown,180,2013-02-19 09:00:00
5:00 PM,96.8,60.8,30,29.68,3.7,NE,2.3,-,N/A,,Unknown,50,2013-02-19 10:00:00
5:30 PM,93.2,62.6,36,29.68,3.7,ENE,2.3,-,N/A,,Unknown,70,2013-02-19 10:30:00
6:00 PM,93.2,62.6,36,29.68,3.7,Calm,Calm,-,N/A,,Unknown,0,2013-02-19 11:00:00
7:00 PM,90,64,33,29.72,4,Calm,Calm,,,,Haze,,2013-02-19 12:00:00
7:00 PM,89.6,64.4,43,29.71,3.7,Calm,Calm,-,N/A,,Unknown,0,2013-02-19 12:00:00
8:00 PM,87.8,68.0,52,29.71,3.7,NE,2.3,-,N/A,,Unknown,40,2013-02-19 13:00:00
9:00 PM,84.2,68.0,58,29.74,3.7,Calm,Calm,-,N/A,,Unknown,0,2013-02-19 14:00:00
10:00 PM,82.4,68.0,62,29.74,3.7,Calm,Calm,-,N/A,,Unknown,0,2013-02-19 15:00:00
11:00 PM,80.6,68.0,65,29.77,3.7,ESE,2.3,-,N/A,,Unknown,110,2013-02-19 16:00:00